Weather History for CWYY - April, 2014

Change the Weather History Date:

Sunday, April 6, 2014

  Actual Average Record
Temperature  
Mean Temperature 51 °F -  
Max Temperature 66 °F - - ()
Min Temperature 36 °F - - ()
Degree Days  
Heating Degree Days 14    
Growing Degree Days 1 (Base 50)    
Moisture  
Dew Point 31 °F    
Average Humidity 46    
Maximum Humidity 88    
Minimum Humidity 14    
Precipitation  
Precipitation 0.07 in - - ()
Sea Level Pressure  
Sea Level Pressure 30.07 in    
Wind  
Wind Speed 4 mph ()    
Max Wind Speed 7 mph    
Max Gust Speed -    
T = Trace of Precipitation, MM = Missing Value Source: Averaged Metar Reports

Daily Weather History Graph

Daily Weather History Graph

Search for Another Location

Airport or City:

Trip Planner

Search our weather history database for the weather conditions in past years. The results will help you decide how hot, cold, wet, or windy it might be!

Date:

Astronomy

Apr. 06, 2014 Rise Set
Actual Time 6:24 AM PDT 7:36 PM PDT
Civil Twilight 5:52 AM PDT 8:09 PM PDT
Nautical Twilight 5:12 AM PDT 8:48 PM PDT
Astronomical Twilight 4:30 AM PDT 9:30 PM PDT
Moon 11:13 AM PDT (4/6) 1:52 AM PDT (4/6)
Length of Visible Light 14h 17m
Length of Day
13h 11m
Waxing Crescent, 45% of the Moon is Illuminated
Apr 6
Waxing Crescent
Apr 7
First Quarter
Apr 15
Full
Apr 22
Last Quarter
Apr 28
New

Hourly Weather History & Observations

Time (PDT) Temp. Windchill Dew Point Humidity Pressure Visibility Wind Dir Wind Speed Gust Speed Precip Events Conditions
12:00 AM 52.5 °F - 36.3 °F 54% 29.89 in - SSE 6.9 mph - N/A   Unknown
1:00 AM 50.7 °F - 36.9 °F 59% 29.91 in - ESE 6.9 mph - N/A   Unknown
2:00 AM 48.6 °F - 34.7 °F 59% 29.92 in - ESE 3.5 mph - N/A   Unknown
3:00 AM 46.8 °F - 37.2 °F 69% 29.93 in - SSW 3.5 mph - N/A   Unknown
4:00 AM 39.9 °F - 33.4 °F 78% 29.96 in - WSW 2.3 mph - N/A   Unknown
5:00 AM 40 °F - 35 °F 74% 30.01 in - NE 2.3 mph - -  
5:00 AM 39.6 °F - 34.5 °F 82% 30.01 in - NE 2.3 mph - N/A   Unknown
6:00 AM 38.3 °F - 34.2 °F 85% 30.01 in - Calm Calm - N/A   Unknown
7:00 AM 37.8 °F - 34.5 °F 88% 30.04 in - South 1.2 mph - N/A   Unknown
8:00 AM 42.6 °F 40.9 °F 36.3 °F 78% 30.08 in - ENE 3.5 mph - N/A   Unknown
9:00 AM 47.8 °F - 38.1 °F 69% 30.09 in - SSW 2.3 mph - N/A   Unknown
10:00 AM 52.2 °F - 37.6 °F 58% 30.11 in - ENE 2.3 mph - N/A   Unknown
11:00 AM 59 °F - 32 °F 24% 30.11 in - North 2.3 mph - -  
11:00 AM 58.6 °F - 32.0 °F 37% 30.11 in - North 2.3 mph - N/A   Unknown
12:00 PM 59.2 °F - 26.6 °F 29% 30.12 in - North 6.9 mph - N/A   Unknown
1:00 PM 62.2 °F - 25.3 °F 25% 30.10 in - NNE 3.5 mph - N/A   Unknown
2:00 PM 63.7 °F - 25.0 °F 23% 30.09 in - NW 3.5 mph - N/A   Unknown
3:00 PM 64.4 °F - 24.1 °F 22% 30.09 in - WNW 4.6 mph - N/A   Unknown
4:00 PM 64.4 °F - 24.8 °F 22% 30.09 in - SSW 4.6 mph - N/A   Unknown
5:00 PM 64 °F - 26 °F 14% 30.09 in - South 4.6 mph - -  
5:00 PM 63.7 °F - 26.2 °F 24% 30.09 in - South 4.6 mph - N/A   Unknown
6:00 PM 62.6 °F - 26.1 °F 25% 30.11 in - WSW 2.3 mph - N/A   Unknown
7:00 PM 59.5 °F - 29.3 °F 32% 30.12 in - NNW 3.5 mph - N/A   Unknown
8:00 PM 59.5 °F - 26.2 °F 28% 30.12 in - WNW 4.6 mph - N/A   Unknown
9:00 PM 58.1 °F - 28.2 °F 32% 30.14 in - NW 6.9 mph - N/A   Unknown
10:00 PM 57.0 °F - 27.1 °F 32% 30.16 in - WNW 4.6 mph - N/A   Unknown
11:00 PM 56 °F - 27 °F 21% 30.17 in - WNW 3.5 mph - -  
11:00 PM 54.5 °F - 27.1 °F 35% 30.17 in - WNW 3.5 mph - N/A   Unknown